1508266801.07,40448,20.19,74740.8,5.91,-28.15,-29.83,0,*72
1508266802.32,40449,20.19,74740.0,5.89,-28.21,-30.11,0,*7E
1508266803.59,40450,20.19,74740.5,5.91,-28.25,-30.17,0,*7D
1508266804.85,40451,20.19,74740.5,5.93,-28.31,-30.17,0,*7B
1508266806.13,40452,20.19,74738.3,5.89,-28.21,-30.05,0,*71
1508266807.4,40453,20.19,74740.3,5.91,-28.25,-30.01,0,*79
1508266808.63,40454,20.19,74742.0,5.91,-28.43,-30.23,0,*7E
1508266809.86,40455,20.19,74740.5,5.91,-28.31,-30.05,0,*7E
1508266811.14,40456,20.19,74738.8,5.93,-28.25,-30.01,0,*7E
1508266812.42,40457,20.19,74742.8,5.93,-28.43,-30.05,0,*7B
1508266813.68,40458,20.19,74742.8,5.91,-28.25,-30.05,0,*76
1508266814.94,40459,20.19,74742.3,5.89,-28.21,-29.83,0,*7C
1508266816.17,40460,20.19,74736.3,5.91,-27.99,-29.79,0,*76
1508266817.4,40461,20.19,74738.5,5.91,-28.15,-30.05,0,*7F
1508266818.6,40462,20.19,74738.0,5.91,-28.31,-30.23,0,*7E
1508266819.83,40463,20.19,74742.8,5.91,-28.31,-30.05,0,*7B
1508266821.08,40464,20.19,74742.0,5.89,-28.31,-30.05,0,*75
1508266822.36,40465,20.19,74742.3,5.89,-28.21,-30.05,0,*75
1508266823.63,40466,20.19,74740.3,5.91,-28.25,-30.01,0,*7F
1508266824.83,40467,20.19,74742.0,5.91,-28.15,-29.83,0,*7F
1508266826.1,40468,20.19,74740.8,5.91,-28.25,-30.01,0,*71
1508266827.33,40469,20.13,74738.5,5.91,-28.15,-30.01,0,*73
1508266828.56,40470,20.19,74742.3,5.91,-28.09,-29.79,0,*71
1508266829.82,40471,20.19,74740.0,5.95,-28.25,-30.01,0,*7D
1508266831.11,40472,20.19,74742.3,5.93,-28.25,-30.05,0,*7C
1508266832.36,40473,20.19,74742.3,5.93,-28.47,-30.33,0,*7C
1508266833.63,40474,20.13,74738.0,5.91,-28.25,-30.17,0,*7B
1508266834.89,40475,20.19,74742.3,5.91,-28.25,-30.01,0,*7D
1508266836.18,40476,20.19,74740.0,5.93,-28.25,-30.01,0,*7C
1508266837.47,40477,20.19,74740.0,5.93,-28.25,-30.05,0,*79
1508266838.73,40478,20.19,74740.5,5.91,-28.25,-30.05,0,*74
1508266840.01,40479,20.19,74742.5,5.89,-28.21,-30.01,0,*7C
1508266841.26,40480,20.19,74742.0,5.93,-28.09,-29.79,0,*7C
1508266842.55,40481,20.19,74740.8,5.93,-28.25,-30.05,0,*70
1508266843.78,40482,20.19,74740.5,5.91,-28.15,-30.01,0,*76
1508266845.01,40483,20.19,74740.5,5.91,-28.15,-30.01,0,*77
1508266846.25,40484,20.19,74742.3,5.91,-28.15,-30.01,0,*70
1508266847.48,40485,20.19,74738.5,5.91,-28.25,-30.23,0,*72
1508266848.75,40486,20.19,74740.3,5.93,-28.31,-30.17,0,*71
1508266850.0,40487,20.19,74738.8,5.93,-28.31,-30.01,0,*77
1508266851.29,40488,20.19,74740.5,5.93,-28.25,-30.01,0,*7D
1508266852.56,40489,20.19,74742.0,5.93,-28.31,-30.17,0,*7E
1508266853.82,40490,20.19,74740.0,5.93,-28.09,-29.83,0,*78
1508266855.08,40491,20.19,74738.8,5.91,-28.25,-30.05,0,*73
1508266856.31,40492,20.19,74742.8,5.91,-28.31,-30.05,0,*75
1508266857.57,40493,20.19,74740.5,5.91,-28.25,-30.17,0,*72
1508266858.8,40494,20.19,74742.3,5.91,-28.43,-30.23,0,*72
1508266860.03,40495,20.19,74742.5,5.91,-28.31,-30.05,0,*72
1508266861.32,40496,20.19,74736.5,5.93,-28.25,-30.05,0,*76
1508266862.55,40497,20.19,74740.0,5.95,-28.09,-29.95,0,*7E
1508266863.82,40498,20.19,74740.3,5.91,-28.25,-30.17,0,*79
1508266865.1,40499,20.19,74742.8,5.93,-28.25,-30.05,0,*79
1508266866.34,40500,20.19,74740.5,5.91,-28.31,-30.17,0,*7C
1508266867.59,40501,20.19,74738.8,5.89,-28.31,-30.05,0,*77
1508266868.82,40502,20.19,74736.5,5.91,-28.31,-30.05,0,*7D
1508266870.04,40503,20.19,74740.0,5.89,-28.31,-30.11,0,*70
1508266871.33,40504,20.19,74742.3,5.93,-28.25,-30.05,0,*7C
1508266872.59,40505,20.19,74740.5,5.93,-28.09,-29.83,0,*75
1508266873.87,40506,20.19,74740.8,5.93,-28.25,-30.05,0,*7E
1508266875.1,40507,20.19,74742.3,5.91,-28.43,-30.23,0,*79
1508266876.33,40508,20.19,74742.0,5.91,-28.47,-30.33,0,*73
1508266877.6,40509,20.19,74740.0,5.91,-28.25,-30.17,0,*70
1508266878.83,40510,20.19,74740.0,5.91,-28.09,-29.83,0,*73
1508266880.1,40511,20.19,74742.5,5.91,-28.25,-30.01,0,*7E
1508266881.35,40512,20.13,74736.5,5.93,-28.31,-30.05,0,*7E
1508266882.62,40513,20.13,74736.5,5.93,-28.31,-30.17,0,*7C
1508266883.85,40514,20.19,74740.8,5.93,-28.15,-29.83,0,*78
1508266885.12,40515,20.19,74740.0,5.91,-28.25,-30.17,0,*7D
1508266886.4,40516,20.19,74740.8,5.93,-28.25,-30.05,0,*7F
1508266887.61,40517,20.19,74742.8,5.91,-28.31,-30.23,0,*7D
1508266888.85,40518,20.19,74742.3,5.91,-28.31,-30.17,0,*75
1508266890.09,40519,20.19,74740.0,5.89,-28.47,-30.27,0,*7F
1508266891.33,40520,20.19,74742.3,5.91,-28.25,-30.23,0,*7C
1508266892.57,40521,20.19,74740.3,5.91,-28.31,-30.17,0,*7F
1508266893.86,40522,20.19,74740.0,5.93,-28.25,-30.01,0,*7C
1508266895.11,40523,20.19,74744.0,5.93,-28.31,-30.05,0,*7C
1508266896.4,40524,20.19,74742.3,5.93,-28.25,-30.05,0,*7E
1508266897.68,40525,20.19,74742.0,5.93,-28.43,-30.17,0,*7C
1508266898.91,40526,20.19,74740.5,5.91,-28.31,-30.05,0,*7B
1508266900.15,40527,20.19,74740.0,5.91,-28.31,-30.17,0,*79
1508266901.38,40528,20.19,74742.5,5.91,-28.15,-30.01,0,*77
1508266902.67,40529,20.19,74740.8,5.93,-28.25,-30.05,0,*73
1508266903.9,40530,20.19,74742.8,5.91,-28.31,-30.17,0,*7F
1508266905.15,40531,20.19,74738.8,5.89,-28.47,-30.23,0,*71
1508266906.44,40532,20.19,74740.8,5.93,-28.43,-30.17,0,*7A
1508266907.67,40533,20.19,74738.5,5.91,-28.43,-30.23,0,*7E
1508266908.93,40534,20.19,74738.5,5.91,-28.25,-30.05,0,*7D
1508266910.15,40535,20.19,74740.3,5.89,-28.31,-30.11,0,*75
1508266911.36,40536,20.13,74738.5,5.91,-28.31,-30.23,0,*7E
1508266912.59,40537,20.13,74736.5,5.91,-28.31,-30.17,0,*78
1508266913.86,40538,20.19,74740.5,5.91,-28.25,-30.01,0,*75
1508266915.09,40539,20.19,74740.3,5.91,-28.15,-30.01,0,*77
1508266916.36,40540,20.19,74740.5,5.93,-28.25,-29.83,0,*7A
1508266917.62,40541,20.19,74738.0,5.91,-28.25,-30.01,0,*7B
1508266918.87,40542,20.19,74742.0,5.89,-28.21,-30.11,0,*74
1508266920.13,40543,20.19,74740.3,5.93,-28.31,-30.17,0,*79
1508266921.37,40544,20.19,74740.5,5.91,-28.31,-30.17,0,*7C
1508266922.6,40545,20.19,74738.3,5.91,-28.31,-30.05,0,*7E
1508266923.81,40546,20.19,74740.5,5.91,-28.31,-30.23,0,*79
1508266925.03,40547,20.19,74740.0,5.91,-28.47,-30.23,0,*79
1508266926.32,40548,20.13,74738.8,5.93,-28.25,-30.05,0,*74
1508266927.56,40549,20.19,74740.5,5.91,-28.59,-30.33,0,*79
1508266928.79,40550,20.19,74740.8,5.91,-28.43,-30.23,0,*7B
1508266930.04,40551,20.19,74740.8,5.89,-28.53,-30.39,0,*79
1508266931.28,40552,20.19,74740.0,5.91,-28.31,-30.17,0,*7B
1508266932.53,40553,20.13,74740.8,5.89,-28.31,-30.05,0,*70
1508266933.75,40554,20.13,74738.8,5.89,-28.31,-30.11,0,*72
1508266935.0,40555,20.19,74740.5,5.91,-28.43,-30.05,0,*7A
1508266936.23,40556,20.19,74740.0,5.91,-28.15,-30.05,0,*7A
1508266937.47,40557,20.19,74742.0,5.91,-28.31,-30.17,0,*7E
1508266938.76,40558,20.19,74740.8,5.93,-28.25,-30.05,0,*75
1508266940.02,40559,20.19,74740.3,5.91,-28.25,-30.01,0,*72
1508266941.23,40560,20.19,74742.3,5.91,-28.37,-30.23,0,*7B
1508266942.45,40561,20.19,74740.0,5.89,-28.31,-30.23,0,*75
1508266943.69,40562,20.13,74740.8,5.89,-28.37,-30.23,0,*70
1508266944.91,40563,20.13,74736.8,5.89,-28.31,-30.23,0,*77
1508266946.18,40564,20.19,74740.3,5.91,-28.25,-30.17,0,*7B
1508266947.38,40565,20.13,74736.8,5.91,-28.31,-30.23,0,*78
1508266948.63,40566,20.19,74742.3,5.89,-28.47,-30.27,0,*77
1508266949.86,40567,20.13,74738.5,5.89,-28.53,-30.45,0,*77
1508266951.11,40568,20.13,74738.5,5.89,-28.47,-30.27,0,*79
1508266952.37,40569,20.19,74740.5,5.89,-28.53,-30.39,0,*72
1508266953.63,40570,20.19,74742.8,5.91,-28.25,-30.17,0,*7E
1508266954.86,40571,20.19,74742.5,5.89,-28.37,-30.11,0,*73
1508266956.08,40572,20.19,74742.0,5.89,-28.31,-30.11,0,*76
1508266957.32,40573,20.19,74742.0,5.89,-28.37,-30.27,0,*74
1508266958.56,40574,20.19,74742.3,5.89,-28.47,-30.27,0,*74
1508266959.8,40575,20.13,74736.0,5.89,-28.53,-30.45,0,*74
1508266961.02,40576,20.19,74742.3,5.89,-28.31,-30.23,0,*73
1508266962.25,40577,20.19,74740.3,5.89,-28.37,-30.23,0,*74
1508266963.48,40578,20.13,74738.0,5.89,-28.31,-30.11,0,*7C
1508266964.71,40579,20.19,74742.8,5.89,-28.37,-30.23,0,*7A
1508266965.94,40580,20.13,74736.5,5.89,-28.53,-30.27,0,*7A
1508266967.19,40581,20.19,74740.8,5.89,-28.47,-30.45,0,*7A
1508266968.46,40582,20.19,74740.8,5.89,-28.47,-30.39,0,*72
1508266969.68,40583,20.19,74742.8,5.89,-28.31,-30.11,0,*78
1508266970.96,40584,20.19,74742.8,5.89,-28.47,-30.39,0,*74
1508266972.22,40585,20.19,74742.5,5.89,-28.69,-30.61,0,*74
1508266973.47,40586,20.19,74742.3,5.85,-28.75,-30.67,0,*70
1508266974.71,40587,20.13,74740.3,5.85,-28.69,-30.51,0,*79
1508266975.91,40588,20.13,74742.3,5.83,-28.53,-30.45,0,*7C
1508266977.14,40589,20.19,74740.5,5.83,-28.75,-30.67,0,*79
1508266978.39,40590,20.19,74742.3,5.85,-28.69,-30.61,0,*7C
1508266979.66,40591,20.13,74736.5,5.85,-28.59,-30.51,0,*7D
1508266980.89,40592,20.13,74738.5,5.83,-28.59,-30.33,0,*7C
1508266982.11,40593,20.13,74738.3,5.85,-28.53,-30.45,0,*70
1508266983.31,40594,20.19,74740.0,5.83,-28.53,-30.27,0,*75
1508266984.56,40595,20.19,74740.3,5.85,-28.69,-30.51,0,*7A
1508266985.78,40596,20.19,74740.8,5.83,-28.59,-30.45,0,*79
1508266987.03,40597,20.19,74742.8,5.85,-28.59,-30.33,0,*7F
1508266988.26,40598,20.19,74742.5,5.85,-28.37,-30.33,0,*78
1508266989.46,40599,20.13,74738.5,5.83,-28.53,-30.45,0,*7C
1508266990.7,40600,20.13,74740.8,5.85,-28.43,-30.33,0,*79
1508266991.95,40601,20.19,74742.5,5.83,-28.59,-30.51,0,*71
1508266993.17,40602,20.13,74738.5,5.85,-28.53,-30.27,0,*7F
1508266994.4,40603,20.13,74736.5,5.83,-28.53,-30.51,0,*79
1508266995.65,40604,20.19,74742.3,5.83,-28.59,-30.51,0,*74
1508266996.88,40605,20.19,74740.8,5.83,-28.59,-30.45,0,*70
1508266998.08,40606,20.13,74736.0,5.83,-28.53,-30.45,0,*79
1508266999.28,40607,20.13,74740.8,5.83,-28.53,-30.27,0,*7C
1508267000.5,40608,20.13,74738.8,5.83,-28.43,-30.33,0,*77
1508267001.77,40609,20.13,74736.5,5.85,-28.59,-30.51,0,*7F
1508267003.02,40610,20.19,74742.5,5.83,-28.59,-30.51,0,*71
1508267004.22,40611,20.19,74740.5,5.83,-28.53,-30.45,0,*7F
1508267005.45,40612,20.19,74742.0,5.83,-28.53,-30.51,0,*79
1508267006.7,40613,20.19,74740.3,5.83,-28.59,-30.51,0,*72
1508267007.92,40614,20.13,74740.5,5.85,-28.53,-30.27,0,*78
1508267009.13,40615,20.13,74742.5,5.83,-28.53,-30.33,0,*7A
1508267010.33,40616,20.13,74736.3,5.83,-28.37,-30.33,0,*7B
1508267011.56,40617,20.13,74740.3,5.83,-28.69,-30.61,0,*76
1508267012.8,40618,20.13,74740.3,5.83,-28.79,-30.67,0,*7E
1508267014.04,40619,20.13,74736.5,5.83,-28.75,-30.51,0,*76
1508267015.31,40620,20.13,74738.5,5.81,-28.59,-30.51,0,*70
1508267016.56,40621,20.19,74742.3,5.81,-28.59,-30.33,0,*75
1508267017.8,40622,20.13,74736.3,5.81,-28.47,-30.33,0,*79
1508267019.07,40623,20.13,74738.0,5.81,-28.59,-30.39,0,*7D
1508267020.34,40624,20.13,74738.5,5.81,-28.59,-30.39,0,*7A
1508267021.6,40625,20.19,74742.3,5.81,-28.47,-30.39,0,*74
1508267022.86,40626,20.13,74736.5,5.81,-28.47,-30.39,0,*77
1508267024.13,40627,20.19,74740.8,5.81,-28.59,-30.39,0,*79
1508267025.4,40628,20.13,74738.0,5.81,-28.43,-30.17,0,*71
1508267026.65,40629,20.19,74740.0,5.81,-28.47,-30.33,0,*72
1508267027.92,40630,20.19,74740.0,5.81,-28.43,-30.17,0,*78
1508267029.16,40631,20.13,74736.5,5.81,-28.47,-30.33,0,*7B
1508267030.4,40632,20.13,74738.3,5.81,-28.43,-30.23,0,*7D
1508267031.65,40633,20.13,74736.8,5.81,-28.25,-29.95,0,*79
1508267032.89,40634,20.13,74736.8,5.81,-28.31,-30.17,0,*79
1508267034.17,40635,20.13,74736.8,5.85,-28.25,-29.89,0,*76
1508267035.39,40636,20.13,74738.5,5.83,-28.25,-29.95,0,*7E
1508267036.59,40637,20.19,74742.5,5.83,-28.37,-30.27,0,*7D
1508267037.8,40638,20.13,74736.3,5.83,-28.37,-30.27,0,*72
1508267039.0,40639,20.13,74732.8,5.83,-28.37,-30.27,0,*73
1508267040.22,40640,20.13,74738.5,5.83,-28.43,-30.27,0,*7E
1508267041.42,40641,20.13,74738.0,5.83,-28.53,-30.27,0,*7E
1508267042.65,40642,20.13,74736.5,5.83,-28.37,-30.17,0,*7C
1508267043.87,40643,20.13,74736.8,5.83,-28.43,-30.27,0,*7D
1508267045.12,40644,20.13,74738.8,5.83,-28.43,-30.51,0,*7B
1508267046.37,40645,20.13,74740.0,5.83,-28.75,-30.61,0,*7C
1508267047.58,40646,20.13,74734.5,5.83,-28.53,-30.33,0,*7C
1508267048.83,40647,20.13,74738.3,5.81,-28.75,-30.67,0,*7A
1508267050.09,40648,20.13,74736.8,5.81,-28.59,-30.39,0,*70
1508267051.34,40649,20.13,74738.3,5.81,-28.59,-30.33,0,*7B
1508267052.61,40650,20.13,74736.0,5.81,-28.63,-30.55,0,*7A
1508267053.88,40651,20.13,74736.8,5.81,-28.63,-30.55,0,*7B
1508267055.15,40652,20.13,74738.5,5.81,-28.59,-30.51,0,*75
1508267056.42,40653,20.13,74736.3,5.81,-28.59,-30.55,0,*70
1508267057.69,40654,20.13,74738.8,5.81,-28.63,-30.51,0,*7A
1508267058.96,40655,20.13,74736.0,5.81,-28.59,-30.39,0,*7C
1508267060.2,40656,20.13,74738.8,5.81,-28.47,-30.33,0,*7A
1508267061.42,40657,20.19,74740.5,5.79,-28.47,-30.33,0,*7C
1508267062.64,40658,20.13,74736.0,5.79,-28.43,-30.23,0,*76
1508267063.88,40659,20.13,74738.3,5.79,-28.59,-30.51,0,*79
1508267065.15,40660,20.13,74738.3,5.81,-28.63,-30.51,0,*7D
1508267066.4,40661,20.13,74740.8,5.79,-28.75,-30.55,0,*78
1508267067.66,40662,20.13,74738.3,5.81,-28.59,-30.39,0,*78
1508267068.91,40663,20.13,74740.5,5.79,-28.63,-30.51,0,*79
1508267070.18,40664,20.13,74738.3,5.81,-28.59,-30.51,0,*70
1508267071.45,40665,20.13,74738.5,5.81,-28.63,-30.39,0,*76
1508267072.67,40666,20.13,74736.3,5.79,-28.43,-30.33,0,*7A
1508267073.89,40667,20.13,74738.3,5.81,-28.31,-30.23,0,*78
1508267075.13,40668,20.13,74738.0,5.81,-28.43,-30.33,0,*73
1508267076.38,40669,20.13,74736.0,5.79,-28.63,-30.51,0,*73
1508267077.63,40670,20.13,74736.0,5.79,-28.63,-30.51,0,*7B
1508267078.85,40671,20.13,74736.3,5.79,-28.47,-30.33,0,*78
1508267080.11,40672,20.13,74736.8,5.81,-28.47,-30.39,0,*76
1508267081.35,40673,20.13,74738.3,5.81,-28.47,-30.33,0,*7D
1508267082.57,40674,20.19,74740.0,5.79,-28.47,-30.33,0,*7D
1508267083.81,40675,20.13,74740.8,5.79,-28.63,-30.55,0,*7A
1508267085.08,40676,20.13,74738.8,5.81,-28.59,-30.51,0,*73
1508267086.33,40677,20.13,74738.5,5.79,-28.59,-30.39,0,*7B
1508267087.58,40678,20.19,74742.0,5.79,-28.59,-30.51,0,*7A
1508267088.84,40679,20.13,74738.5,5.81,-28.59,-30.39,0,*72
1508267090.09,40680,20.13,74738.8,5.79,-28.43,-30.17,0,*74
1508267091.31,40681,20.13,74736.5,5.79,-28.43,-30.23,0,*72
1508267092.55,40682,20.13,74738.3,5.79,-28.47,-30.39,0,*7E
1508267093.79,40683,20.13,74740.8,5.81,-28.47,-30.33,0,*72
1508267095.01,40684,20.13,74736.3,5.79,-28.31,-30.17,0,*75
1508267096.23,40685,20.13,74736.3,5.79,-28.47,-30.33,0,*73
1508267097.47,40686,20.13,74736.0,5.79,-28.47,-30.39,0,*7A
1508267098.7,40687,20.13,74740.3,5.79,-28.31,-30.17,0,*76
1508267099.92,40688,20.13,74738.0,5.79,-28.43,-30.33,0,*7A
1508267101.14,40689,20.13,74736.8,5.79,-28.47,-30.33,0,*7F
1508267102.36,40690,20.13,74738.3,5.79,-28.47,-30.33,0,*77
1508267103.58,40691,20.13,74736.8,5.79,-28.43,-30.33,0,*72
1508267104.83,40692,20.13,74740.0,5.79,-28.59,-30.51,0,*7E
1508267106.05,40693,20.13,74738.3,5.79,-28.43,-30.33,0,*70
1508267107.24,40694,20.13,74738.8,5.79,-28.31,-30.23,0,*73
1508267108.48,40695,20.13,74738.5,5.77,-28.47,-30.27,0,*79
1508267109.7,40696,20.13,74736.8,5.79,-28.43,-30.33,0,*75
1508267110.93,40697,20.13,74734.5,5.79,-28.59,-30.33,0,*7F
1508267112.17,40698,20.13,74742.3,5.77,-28.53,-30.39,0,*7E
1508267113.41,40699,20.13,74736.5,5.77,-28.47,-30.23,0,*71
1508267114.63,40700,20.13,74738.5,5.79,-28.47,-30.33,0,*7F
1508267115.87,40701,20.13,74738.3,5.79,-28.47,-30.39,0,*74
1508267117.11,40702,20.13,74736.3,5.77,-28.53,-30.39,0,*7C
1508267118.36,40703,20.13,74740.3,5.75,-28.59,-30.51,0,*7B
1508267119.59,40704,20.13,74736.3,5.77,-28.53,-30.45,0,*71
1508267120.81,40705,20.13,74738.8,5.79,-28.43,-30.33,0,*7E
1508267122.05,40706,20.13,74738.3,5.77,-28.53,-30.39,0,*78
1508267123.32,40707,20.19,74742.8,5.77,-28.47,-30.39,0,*7C
1508267124.55,40708,20.13,74740.3,5.77,-28.47,-30.23,0,*78
1508267125.78,40709,20.13,74736.5,5.77,-28.53,-30.45,0,*7C
1508267127.0,40710,20.13,74742.0,5.77,-28.53,-30.45,0,*74
1508267128.22,40711,20.13,74736.5,5.77,-28.53,-30.45,0,*75
1508267129.44,40712,20.13,74736.8,5.77,-28.37,-30.27,0,*70
1508267130.72,40713,20.13,74738.5,5.77,-28.79,-30.73,0,*7A
1508267131.97,40714,20.13,74742.0,5.77,-28.69,-30.61,0,*7F
1508267133.24,40715,20.13,74740.0,5.77,-28.63,-30.55,0,*73
1508267134.49,40716,20.13,74736.8,5.77,-28.63,-30.45,0,*71
1508267135.73,40717,20.13,74740.3,5.79,-28.59,-30.51,0,*72
1508267137.0,40718,20.13,74738.3,5.77,-28.63,-30.39,0,*74
1508267138.22,40719,20.13,74736.8,5.75,-28.53,-30.51,0,*7A
1508267139.46,40720,20.13,74736.8,5.77,-28.47,-30.27,0,*76
1508267140.68,40721,20.13,74736.3,5.77,-28.53,-30.27,0,*72
1508267141.91,40722,20.13,74738.5,5.75,-28.59,-30.33,0,*7C
1508267143.18,40723,20.13,74738.0,5.77,-28.63,-30.39,0,*7C
1508267144.45,40724,20.13,74736.3,5.77,-28.63,-30.55,0,*71
1508267145.67,40725,20.13,74742.5,5.75,-28.75,-30.67,0,*74
1508267146.9,40726,20.13,74738.5,5.75,-28.59,-30.67,0,*79
1508267148.15,40727,20.13,74738.5,5.77,-28.63,-30.45,0,*73
1508267149.35,40728,20.13,74738.3,5.75,-28.69,-30.33,0,*75
1508267150.55,40729,20.13,74736.3,5.75,-28.53,-30.45,0,*7C
1508267151.8,40730,20.13,74738.0,5.75,-28.59,-30.51,0,*7B
1508267153.04,40731,20.13,74738.5,5.75,-28.59,-30.51,0,*7A
1508267154.29,40732,20.13,74738.8,5.77,-28.53,-30.39,0,*7F
1508267155.49,40733,20.13,74742.0,5.75,-28.53,-30.33,0,*76
1508267156.72,40734,20.13,74736.8,5.75,-28.59,-30.33,0,*7B
1508267157.94,40735,20.13,74736.8,5.79,-28.47,-30.33,0,*79
1508267159.14,40736,20.13,74738.0,5.75,-28.53,-30.27,0,*76
1508267160.36,40737,20.13,74736.8,5.75,-28.53,-30.39,0,*78
1508267161.56,40738,20.13,74736.3,5.75,-28.53,-30.33,0,*7D
1508267162.78,40739,20.13,74738.0,5.75,-28.43,-30.11,0,*7D
1508267164.0,40740,20.13,74738.5,5.75,-28.37,-30.05,0,*75
1508267165.22,40741,20.13,74740.3,5.75,-28.59,-30.45,0,*78
1508267166.46,40742,20.13,74736.8,5.77,-28.47,-30.23,0,*76
1508267167.66,40743,20.13,74738.3,5.75,-28.37,-30.11,0,*73
1508267168.87,40744,20.13,74740.0,5.75,-28.43,-30.11,0,*77
1508267170.07,40745,20.13,74740.3,5.75,-28.53,-30.27,0,*72
1508267171.32,40746,20.13,74734.3,5.75,-28.25,-30.05,0,*70
1508267172.51,40747,20.13,74738.0,5.75,-28.37,-30.11,0,*77
1508267173.71,40748,20.13,74740.0,5.75,-28.53,-30.27,0,*7F
1508267174.93,40749,20.13,74734.8,5.75,-28.37,-30.05,0,*7C
1508267176.15,40750,20.13,74736.8,5.77,-28.37,-30.23,0,*72
1508267177.35,40751,20.13,74738.3,5.75,-28.69,-30.45,0,*7A
1508267178.55,40752,20.13,74736.3,5.75,-28.53,-30.27,0,*74
1508267179.75,40753,20.13,74736.3,5.75,-28.53,-30.33,0,*70
1508267180.98,40754,20.13,74738.3,5.75,-28.37,-30.05,0,*70
1508267182.2,40755,20.13,74736.3,5.77,-28.37,-30.23,0,*77
1508267183.4,40756,20.13,74738.5,5.75,-28.53,-30.33,0,*75
1508267184.6,40757,20.13,74738.5,5.75,-28.37,-30.23,0,*77
1508267185.82,40758,20.13,74734.0,5.75,-28.25,-30.11,0,*7A
1508267187.03,40759,20.13,74740.0,5.75,-28.43,-30.11,0,*7B
1508267188.28,40760,20.13,74738.3,5.77,-28.31,-30.01,0,*77
1508267189.5,40761,20.13,74740.3,5.75,-28.37,-30.05,0,*76
1508267190.72,40762,20.13,74740.0,5.75,-28.25,-30.11,0,*73
1508267191.94,40763,20.13,74738.8,5.75,-28.21,-29.95,0,*72
1508267193.17,40764,20.13,74738.0,5.75,-28.25,-29.95,0,*71
1508267194.41,40765,20.13,74738.8,5.75,-28.25,-30.05,0,*71
1508267195.61,40766,20.13,74738.0,5.75,-28.37,-30.11,0,*74
1508267196.83,40767,20.13,74740.0,5.75,-28.05,-29.79,0,*72
1508267198.1,40768,20.13,74740.0,5.77,-28.05,-29.89,0,*70
1508267199.37,40769,20.13,74736.8,5.77,-28.21,-30.01,0,*7F
1508267200.57,40770,20.13,74738.5,5.79,-28.15,-29.83,0,*7C
1508267201.77,40771,20.13,74740.3,5.79,-28.15,-29.83,0,*7D
1508267203.01,40772,20.13,74738.5,5.77,-28.15,-29.89,0,*7A
1508267204.29,40773,20.13,74736.0,5.77,-28.21,-29.89,0,*7C
1508267205.51,40774,20.13,74736.3,5.79,-28.31,-30.17,0,*7B
1508267206.75,40775,20.13,74736.3,5.77,-28.31,-30.05,0,*77
1508267207.98,40776,20.13,74738.3,5.79,-28.31,-30.17,0,*79
1508267209.25,40777,20.13,74740.5,5.77,-28.21,-29.89,0,*78
1508267210.45,40778,20.13,74734.3,5.79,-28.15,-29.95,0,*73
1508267211.66,40779,20.13,74736.8,5.79,-28.09,-29.95,0,*7F
1508267212.89,40780,20.13,74738.5,5.79,-28.15,-30.01,0,*71
1508267214.13,40781,20.13,74740.8,5.77,-28.31,-30.01,0,*78
1508267215.35,40782,20.13,74738.3,5.75,-28.21,-29.95,0,*7D
1508267216.57,40783,20.13,74736.3,5.79,-28.09,-29.83,0,*7D
1508267217.79,40784,20.13,74740.0,5.77,-28.31,-30.23,0,*7D
1508267219.01,40785,20.13,74738.5,5.75,-28.25,-30.11,0,*7A
1508267220.25,40786,20.13,74738.3,5.77,-28.47,-30.27,0,*7A
1508267221.49,40787,20.13,74738.5,5.77,-28.47,-30.23,0,*7F
1508267222.76,40788,20.13,74736.3,5.77,-28.21,-30.01,0,*70
1508267224.01,40789,20.13,74738.5,5.77,-28.15,-29.89,0,*7E
1508267225.23,40790,20.13,74738.3,5.77,-28.37,-30.23,0,*7E
1508267226.47,40791,20.13,74742.0,5.77,-28.31,-30.01,0,*79
1508267227.67,40792,20.13,74738.8,5.79,-28.15,-29.83,0,*70
1508267228.86,40793,20.13,74736.3,5.79,-28.15,-29.83,0,*71
1508267230.12,40794,20.13,74736.8,5.79,-28.25,-30.17,0,*70
1508267231.33,40795,20.13,74738.0,5.79,-28.47,-30.23,0,*72
1508267232.55,40796,20.13,74736.3,5.79,-28.25,-29.95,0,*70
1508267233.77,40797,20.13,74738.8,5.79,-28.31,-30.01,0,*71
1508267234.97,40798,20.13,74736.8,5.79,-28.31,-29.95,0,*7B
1508267236.21,40799,20.13,74736.8,5.79,-28.43,-30.01,0,*7A
1508267237.41,40800,20.13,74736.0,5.79,-28.15,-29.83,0,*74
1508267238.6,40801,20.13,74736.8,5.79,-28.15,-29.95,0,*72
1508267239.79,40802,20.13,74736.8,5.79,-28.31,-30.23,0,*72
1508267241.02,40803,20.13,74738.3,5.79,-28.25,-29.83,0,*74
1508267242.24,40804,20.13,74738.0,5.79,-28.15,-30.01,0,*72
1508267243.43,40805,20.13,74738.5,5.79,-28.31,-29.95,0,*70
1508267244.68,40806,20.13,74738.8,5.79,-28.25,-30.01,0,*73
1508267245.95,40807,20.13,74736.3,5.77,-28.21,-30.05,0,*7C
1508267247.17,40808,20.13,74740.8,5.79,-28.09,-29.95,0,*76
1508267248.38,40809,20.13,74736.3,5.79,-27.99,-29.79,0,*73
1508267249.61,40810,20.13,74736.8,5.79,-28.15,-30.17,0,*70
1508267250.85,40811,20.13,74738.5,5.81,-27.99,-29.79,0,*7D
1508267252.06,40812,20.13,74738.8,5.79,-28.09,-29.79,0,*7F
1508267253.28,40813,20.13,74738.0,5.79,-28.09,-29.83,0,*7B
1508267254.53,40814,20.13,74736.3,5.81,-27.99,-29.83,0,*7D
1508267255.74,40815,20.13,74736.3,5.79,-28.09,-29.79,0,*78
1508267256.96,40816,20.13,74740.0,5.81,-28.15,-29.95,0,*73
1508267258.15,40817,20.13,74738.0,5.79,-28.15,-29.95,0,*75
1508267259.35,40818,20.13,74738.3,5.79,-28.15,-29.83,0,*7D
1508267260.57,40819,20.13,74738.0,5.79,-28.25,-29.83,0,*7F
1508267261.82,40820,20.13,74740.3,5.81,-28.09,-29.83,0,*7C
1508267263.03,40821,20.13,74738.5,5.81,-28.15,-29.79,0,*75
1508267264.25,40822,20.13,74738.8,5.81,-28.15,-29.95,0,*74
1508267265.46,40823,20.13,74738.0,5.81,-28.15,-29.95,0,*75
1508267266.68,40824,20.13,74738.0,5.79,-28.31,-30.01,0,*76
1508267267.9,40825,20.13,74736.3,5.81,-28.15,-29.95,0,*73
1508267269.11,40826,20.13,74738.5,5.81,-28.15,-29.95,0,*70
1508267270.3,40827,20.13,74740.0,5.79,-28.15,-29.79,0,*74
1508267271.58,40828,20.13,74736.3,5.81,-28.25,-30.01,0,*78
1508267272.8,40829,20.13,74736.3,5.79,-28.31,-30.17,0,*7C
1508267274.04,40830,20.13,74738.5,5.81,-28.31,-30.01,0,*74
1508267275.29,40831,20.13,74736.3,5.81,-28.31,-30.17,0,*72
1508267276.54,40832,20.13,74738.5,5.81,-28.25,-29.95,0,*76
1508267277.73,40833,20.13,74738.5,5.79,-28.15,-29.95,0,*73
1508267278.98,40834,20.13,74736.8,5.79,-28.25,-30.01,0,*72
1508267280.23,40835,20.13,74738.0,5.81,-28.31,-30.17,0,*76
1508267281.48,40836,20.13,74736.5,5.79,-28.25,-30.17,0,*77
1508267282.7,40837,20.13,74738.8,5.83,-28.31,-30.01,0,*71
1508267283.95,40838,20.13,74736.0,5.81,-28.09,-29.83,0,*75
1508267285.17,40839,20.13,74736.0,5.81,-28.31,-29.95,0,*78
1508267286.42,40840,20.13,74736.3,5.81,-28.25,-29.83,0,*74
1508267287.66,40841,20.13,74738.5,5.81,-28.31,-30.01,0,*72
1508267288.85,40842,20.13,74738.3,5.79,-28.15,-29.95,0,*75
1508267290.07,40843,20.13,74738.0,5.79,-27.99,-29.79,0,*7D
1508267291.32,40844,20.13,74738.8,5.79,-28.25,-30.01,0,*75
1508267292.56,40845,20.13,74734.5,5.81,-28.25,-29.95,0,*76
1508267293.81,40846,20.13,74736.3,5.83,-28.05,-29.73,0,*7D
1508267295.03,40847,20.13,74736.8,5.81,-28.15,-29.83,0,*70
1508267296.25,40848,20.13,74732.3,5.79,-28.09,-29.83,0,*75
1508267297.5,40849,20.13,74738.8,5.81,-28.09,-29.83,0,*73
1508267298.74,40850,20.13,74740.8,5.81,-28.09,-29.79,0,*7E
1508267299.96,40851,20.13,74736.3,5.81,-28.15,-29.83,0,*77
1508267301.18,40852,20.13,74738.5,5.83,-28.05,-29.79,0,*72
1508267302.41,40853,20.13,74736.8,5.81,-27.99,-29.79,0,*7B
1508267303.66,40854,20.13,74738.0,5.81,-27.99,-29.83,0,*79